Location: Bremen
(53.0793°N, 8.8017°E)
Time: 23:10:03
(UTC+02:00)

Explorer 7 - Pass Details

Date: 15 April 2024
Orbit: 467 x 625 km, 50.3° (Epoch: 20 May)

Event Time Altitude Azimuth Distance (km) Brightness Sun altitude
Rises 14:12:06 0° 210° (SSW) 2,910 11.2 45.9°
Reaches altitude 10° 14:14:49 10° 196° (SSW) 2,005 10.7 45.8°
Maximum altitude 14:18:22 22° 145° (SE) 1,369 9.5 45.6°
Drops below altitude 10° 14:21:53 10° 95° (E) 1,984 9.6 45.5°
Sets 14:24:33 0° 80° (E) 2,871 10.3 45.3°
